Regional Weather Roundup
Issued by NWS

Home | Current Version | Previous Version | Graphics & Text | Print | Product List | Glossary On
Versions: 1 2 3 4 5 6 7 8 9 10 11 12 13 14 15 16 17 18 19 20 21 22 23 24 25 26 27 28 29 30 31 32 33 34 35 36 37 38 39 40 41 42 43 44 45 46 47 48 49 50
000
ASUS43 KDTX 061310
RWRMI
MICHIGAN HOURLY REGIONAL WEATHER ROUNDUP
NATIONAL WEATHER SERVICE DETROIT/PONTIAC MI
900 AM EDT WED MAY 06 2015

NOTE: "FAIR" INDICATES FEW OR NO CLOUDS BELOW 12,000 FEET WITH NO
SIGNIFICANT WEATHER AND/OR OBSTRUCTION TO VISIBILITY.

MIZ047>049-052>055-059>063-066>070-074>076-081>083-061400-
SOUTHEAST LOWER MICHIGAN

CITY           SKY/WX    TMP DP  RH WIND       PRES   REMARKS
ADRIAN         FOG       52  52 100 E8        30.27R VSB 1/4
ALMA           CLOUDY    53  48  84 E6        30.27R
ANN ARBOR      CLOUDY    53  51  93 E6        30.26S FOG
BAD AXE        CLOUDY    49  44  81 E3        30.29S
CARO           PTSUNNY   51  45  79 CALM      30.27S
DETROIT CITY   CLOUDY    53  47  79 NE5       30.27S
DETROIT        CLOUDY    56  51  84 NE6       30.27S HAZE
FLINT          CLOUDY    55  48  77 SE6       30.27S
GROSSE ILE     CLOUDY    54  52  94 NE6       30.25S FOG
HILLSDALE      FOG       54  54 100 E7        30.24S VSB<1/4
HOWELL         CLOUDY    54  52  94 E8        30.26S FOG

CITY           SKY/WX    TMP DP  RH WIND       PRES   REMARKS
JACKSON        CLOUDY    53  51  93 E7        30.25S FOG
LAMBERTVILLE   FOG       54  52  94 E3        30.26R VSB 1/2
LANSING        CLOUDY    54  51  90 SE7       30.26R FOG
LAPEER         PTSUNNY   53  44  72 E3        30.27S
MASON          CLOUDY    52  51  95 SE6       30.26R FOG
MONROE         FOG       54  52  94 E6        30.25R VSB 1
MT. CLEMENS    CLOUDY    53  48  84 NE5       30.25S
PONTIAC        CLOUDY    54  48  80 E5        30.26S
PORT HOPE        N/A     47  42  83 CALM      30.27S
PORT HURON     CLOUDY    48  45  87 NE3       30.28S
TRI CITIES     CLOUDY    54  48  80 E6        30.28R
MIDLAND        FAIR      53  50  87 NE3       30.28R
TROY           CLOUDY    54  47  77 E6        30.28S
SAGINAW HB     RAIN      52  50  93 CALM      30.27R
$$
MIZ043>046-050>051-056>058-064>065-071>073-077>080-061400-
SOUTHWEST LOWER MICHIGAN

CITY           SKY/WX    TMP DP  RH WIND       PRES   REMARKS
BATTLE CREEK   FOG       53  52  96 SE3       30.24R VSB 1
BENTON HARBOR  CLOUDY    55  54  96 SE10      30.20S FOG
BIG RAPIDS     CLOUDY    52  47  84 E6        30.26R
COLDWATER      FOG       53  53  99 SE5       30.23F VSB 3/4
FREMONT        CLOUDY    55  50  86 E6        30.24R
HOLLAND        CLOUDY    54  53  97 SE7       30.23R FOG
GRAND RAPIDS   CLOUDY    54  52  93 E8        30.23S FOG
IONIA          CLOUDY    54  52  95 SE6       30.24S FOG
KALAMAZOO      CLOUDY    54  52  93 SE3       30.24R FOG
LUDINGTON      CLOUDY    56  48  75 SE7       30.24R
MARSHALL       FOG       52  52  99 SE7       30.24S VSB 1
MOUNT PLEASANT CLOUDY    51  47  87 E3        30.27S
MUSKEGON       CLOUDY    56  52  86 E8        30.23R FOG
SOUTH HAVEN    CLOUDY    55  54  95 SE6       30.22R FOG
$$
MIZ016>042-061400-
NORTHERN LOWER MICHIGAN

CITY           SKY/WX    TMP DP  RH WIND       PRES   REMARKS
ALPENA         PTSUNNY   52  44  74 S5        30.30R
BEAVER ISLAND  PTSUNNY   58  37  46 SE3       30.27R
BELLAIRE       MOSUNNY   51  44  76 CALM      30.27R
CADILLAC       PTSUNNY   54  44  68 SE8       30.25S
CHARLEVOIX     PTSUNNY   51  42  70 E3        30.29R
FRANKFORT      CLOUDY    55  33  43 SE3       30.25R
GAYLORD        MOSUNNY   50  42  74 SE7       30.27R
GRAYLING       FAIR      47  40  76 CALM      30.28S
HARBOR SPRINGS PTSUNNY   56  40  54 E3        30.27R
HOUGHTON LAKE  CLOUDY    50  40  68 E3        30.28R
MANISTEE       PTSUNNY   54  41  62 E8        30.25S
OSCODA         CLOUDY    44  44 100 CALM      30.29S
PELLSTON       MOSUNNY   53  40  61 SE3       30.28R
ROGERS CITY    MOSUNNY   53  44  72 E3        30.30R
TRAVERSE CITY  PTSUNNY   53  41  63 CALM      30.25S
$$
MIZ007>008-015-061400-
EASTERN UPPER MICHIGAN

CITY           SKY/WX    TMP DP  RH WIND       PRES   REMARKS
KINROSS        SUNNY     54  41  62 CALM      30.29R
MACKINAC ISLAN MOSUNNY   51  40  66 CALM      30.28S
NEWBERRY       MOSUNNY   56  37  49 E8        30.27S
S. S. MARIE    SUNNY     51  37  58 SE5       30.29R
MUNISING         N/A     56  34  43 S7        30.24R
$$
MIZ004>006-011>014-085-061400-
CENTRAL UPPER MICHIGAN

CITY           SKY/WX    TMP DP  RH WIND       PRES   REMARKS
MANISTIQUE     PTSUNNY   51  35  54 SE3       30.27R
ESCANABA       MOSUNNY   52  37  58 CALM      30.25R
MENOMINEE      CLOUDY    50  39  66 CALM      30.23R
SAWYER-GWINN   SUNNY     50  34  53 S5        30.24R
$$
MIZ001>003-009>011-084-061400-
WESTERN UPPER MICHIGAN

CITY           SKY/WX    TMP DP  RH WIND       PRES   REMARKS
IRON MOUNTAIN  PTSUNNY   52  35  52 SE6       30.22S
HOUGHTON       SUNNY     54  27  35 SE6       30.21R
COPPER HARBOR    N/A     59  27  29 VRB3      30.21S
IRONWOOD       CLOUDY    57  39  51 S6        30.14S
$$

ABBREVIATIONS USED IN REMARKS
   TC - TEMPERATURE IN CELSIUS
  WCI - WIND CHILL INDEX
   HX - HEAT INDEX
  VSB - VISIBILITY




USA.gov is the U.S. government's official web portal to all federal, state and local government web resources and services.